FW0906 Weather Reports


Display with metric or nautical units.
time (UTC)temp
F
wind
direction
speed
MPH
gust
MPH
rain 1hr
in
rain 24hr
in
rain mn
in
humidity
%
barometer
mb
20260904023054 86 142 0.0 0.0 0.00 0.00 0.00 100 1014.3
20260904021550 86 146 0.0 0.0 0.00 0.00 0.00 100 1014.2
20260904020045 87 152 0.0 0.0 0.00 0.00 0.00 100 1014.2
20260904014545 87 161 0.0 0.0 0.00 0.00 0.00 100 1013.9
20260904013042 87 168 0.0 0.0 0.00 0.00 0.00 100 1013.7
20260904011532 88 166 0.0 0.0 0.00 0.00 0.00 100 1013.4
20260904010028 88 167 0.0 0.0 0.00 0.00 0.00 100 1013.0
20260904004522 88 167 0.0 0.0 0.00 0.00 0.00 100 1012.7
20260904003018 89 182 0.0 0.0 0.00 0.00 0.00 100 1012.4
20260904001513 90 213 0.0 3.0 0.00 0.00 0.00 100 1012.5
20260904000011 91 209 0.0 0.0 0.00 0.00 0.00 100 1012.7
20260903234515 92 210 0.0 6.0 0.00 0.00 0.00 7 1012.7
20260903233001 92 219 0.0 6.0 0.00 0.00 0.00 18 1012.7
20260903231605 93 230 1.0 7.0 0.00 0.00 0.00 22 1012.9
20260903230053 94 238 0.0 7.0 0.00 0.00 0.00 24 1013.0
20260903224548 94 219 1.0 7.0 0.00 0.00 0.00 29 1013.1
20260903223043 94 228 0.0 6.0 0.00 0.00 0.00 31 1013.1
20260903221539 94 250 1.0 7.0 0.00 0.00 0.00 32 1013.3
20260903220038 94 360 0.0 10.0 0.00 0.00 0.00 32 1013.3
20260903214535 94 242 0.0 6.0 0.00 0.00 0.00 32 1013.3
20260903213027 95 360 1.0 8.0 0.00 0.00 0.00 33 1013.3
20260903211521 95 246 1.0 8.0 0.00 0.00 0.00 33 1013.3
20260903210029 95 218 1.0 10.0 0.00 0.00 0.00 33 1013.4
20260903204513 95 188 0.0 7.0 0.00 0.00 0.00 32 1013.6
20260903203021 94 220 1.0 7.0 0.00 0.00 0.00 29 1013.7
20260903201505 94 180 1.0 7.0 0.00 0.00 0.00 29 1013.7
20260903200101 94 209 1.0 10.0 0.00 0.00 0.00 27 1014.0
20260903194555 93 138 0.0 7.0 0.00 0.00 0.00 8 1014.3
20260903193051 92 138 0.0 6.0 0.00 0.00 0.00 8 1014.5
20260903191553 91 108 0.0 9.0 0.00 0.00 0.00 100 1014.6
20260903190043 89 109 0.0 8.0 0.00 0.00 0.00 100 1014.7
20260903184543 88 102 1.0 9.0 0.00 0.00 0.00 100 1014.8
20260903183036 87 96 2.0 10.0 0.00 0.00 0.00 100 1015.1
20260903181529 87 84 0.0 7.0 0.00 0.00 0.00 100 1015.3
20260903180032 86 69 2.0 9.0 0.00 0.00 0.00 100 1015.5
20260903174520 87 50 1.0 8.0 0.00 0.00 0.00 100 1015.6
20260903173019 89 347 2.0 8.0 0.00 0.00 0.00 100 1015.6
20260903171511 90 53 2.0 13.0 0.00 0.00 0.00 100 1015.7
20260903170010 90 50 1.0 12.0 0.00 0.00 0.00 100 1015.9
20260903164502 89 49 3.0 13.0 0.00 0.00 0.00 100 1016.0
20260903163058 90 297 2.0 11.0 0.00 0.00 0.00 100 1015.9
20260903161556 89 355 3.0 14.0 0.00 0.00 0.00 100 1015.8
20260903160050 88 329 5.0 14.0 0.00 0.00 0.00 100 1015.7
20260903154545 90 312 4.0 11.0 0.00 0.00 0.00 100 1015.4
20260903153040 89 360 2.0 7.0 0.00 0.00 0.00 100 1014.9
20260903151536 88 360 1.0 7.0 0.00 0.00 0.00 100 1014.8
20260903150034 87 360 0.0 7.0 0.00 0.00 0.00 100 1014.8
20260903144528 86 360 4.0 8.0 0.00 0.00 0.00 100 1014.9
20260903143045 86 257 2.0 7.0 0.00 0.00 0.00 100 1014.7
20260903141519 85 360 2.0 8.0 0.00 0.00 0.00 100 1014.8
20260903140022 84 360 2.0 8.0 0.00 0.00 0.00 100 1014.8
20260903134510 83 255 3.0 8.0 0.00 0.00 0.00 100 1014.7
20260903133006 82 254 1.0 8.0 0.00 0.00 0.00 100 1014.7
20260903131501 81 360 1.0 6.0 0.00 0.00 0.00 100 1014.8
20260903130117 81 246 0.0 4.0 0.00 0.00 0.00 100 1014.9
20260903124553 80 237 1.0 6.0 0.00 0.00 0.00 100 1015.0
20260903123049 79 221 0.0 0.0 0.00 0.00 0.00 100 1015.0
20260903121544 78 231 0.0 1.0 0.00 0.00 0.00 100 1015.0
20260903120041 78 233 0.0 0.0 0.00 0.00 0.00 100 1015.0
20260903114536 77 232 0.0 0.0 0.00 0.00 0.00 100 1014.8
20260903113040 78 235 0.0 0.0 0.00 0.00 0.00 100 1014.8
20260903111526 78 236 0.0 0.0 0.00 0.00 0.00 100 1014.7
20260903110022 78 237 0.0 0.0 0.00 0.00 0.00 100 1014.6
20260903104518 78 238 0.0 0.0 0.00 0.00 0.00 100 1014.7
20260903103013 78 241 0.0 3.0 0.00 0.00 0.00 100 1014.7
20260903101511 79 244 0.0 3.0 0.00 0.00 0.00 100 1014.5
20260903100005 79 244 0.0 7.0 0.00 0.00 0.00 100 1014.5
20260903094610 79 232 0.0 4.0 0.00 0.00 0.00 100 1014.6
20260903093107 79 360 0.0 0.0 0.00 0.00 0.00 100 1014.5
20260903091553 79 360 0.0 0.0 0.00 0.00 0.00 100 1014.4
20260903090048 79 360 0.0 0.0 0.00 0.00 0.00 100 1014.3
20260903084543 79 360 0.0 0.0 0.00 0.00 0.00 100 1014.3
20260903083046 79 360 0.0 0.0 0.00 0.00 0.00 100 1014.3
20260903081534 80 360 0.0 1.0 0.00 0.00 0.00 100 1014.3
20260903080030 79 360 0.0 0.0 0.00 0.00 0.00 100 1014.3
20260903074525 79 360 0.0 0.0 0.00 0.00 0.00 100 1014.3
20260903073022 80 360 0.0 0.0 0.00 0.00 0.00 100 1014.3
20260903071517 80 360 0.0 0.0 0.00 0.00 0.00 100 1014.4
20260903070012 80 360 0.0 0.0 0.00 0.00 0.00 100 1014.4
20260903064507 80 360 0.0 0.0 0.00 0.00 0.00 100 1014.4
20260903063005 80 360 0.0 0.0 0.00 0.00 0.00 100 1014.5
20260903061607 80 360 0.0 0.0 0.00 0.00 0.00 100 1014.6
20260903060055 80 360 0.0 0.0 0.00 0.00 0.00 100 1014.6
20260903054550 81 360 0.0 0.0 0.00 0.00 0.00 100 1014.7
20260903053045 81 360 0.0 0.0 0.00 0.00 0.00 100 1014.6
20260903051542 81 360 0.0 0.0 0.00 0.00 0.00 100 1014.5
20260903050037 81 360 0.0 0.0 0.00 0.00 0.00 100 1014.4
20260903044536 81 360 0.0 0.0 0.00 0.00 0.00 100 1014.4
20260903043039 81 360 0.0 0.0 0.00 0.00 0.00 100 1014.4
20260903041529 82 360 0.0 0.0 0.00 0.00 0.00 100 1014.5
20260903040020 82 360 0.0 0.0 0.00 0.00 0.00 100 1014.5
20260903034517 83 360 0.0 0.0 0.00 0.00 0.00 100 1014.5
20260903033014 84 360 0.0 0.0 0.00 0.00 0.00 100 1014.4
20260903031508 85 360 0.0 3.0 0.00 0.00 0.00 100 1014.3
20260903030005 85 225 0.0 5.0 0.00 0.00 0.00 100 1014.1
20260903024558 86 220 0.0 5.0 0.00 0.00 0.00 100 1014.1